Location: Les Avants
(46.4531°N, 6.9444°E)
Time: 17:58:35
(UTC+00:00)

Daily predictions for brighter satellites

Satellite Brightness Start Highest point End
(mag) Time Altitude Azimuth Time Altitude Azimuth Time Altitude Azimuth
CZ-4 R/B 4.4 17:45:03 10° SSE 17:49:11 82° ENE 17:53:22 10° N
COSMO-SKYMED 1 2.6 17:45:45 10° NNE 17:50:08 88° ESE 17:54:28 10° SSW
GP-B 4.4 17:47:55 10° ESE 17:51:09 20° ENE 17:54:24 10° NNE
Cosmos 1992 Rocket 4.5 17:49:36 10° S 17:54:26 39° ESE 17:59:17 10° NE
SL-16 R/B 2.2 17:49:19 10° SSW 17:54:54 63° ESE 18:00:31 10° NNE
Cosmos 2263 Rocket 2.8 17:49:33 10° NNW 17:55:03 61° WSW 18:00:31 10° S
Cosmos 1437 3.6 17:52:24 10° NNW 17:55:13 49° W 17:58:00 10° S
Cosmos 968 Rocket 3.5 17:50:42 10° NNW 17:56:00 74° ENE 18:01:15 10° SSE
ARGOS 3.4 17:51:42 10° SE 17:56:53 48° ENE 18:02:05 10° N
Cosmos 1486 Rocket 4.0 17:54:27 10° NNW 17:59:45 70° ENE 18:05:02 10° SSE
USA 234 4.2 17:54:25 10° ENE 17:59:55 28° SE 18:05:22 10° S
Cosmos 1515 3.8 17:56:28 10° N 18:00:13 50° ENE 18:03:55 10° SSE
Okean 1 3.5 17:56:21 10° N 18:00:18 50° ENE 18:04:14 10° SSE
Cosmos 1633 Rocket 3.0 17:58:02 10° S 18:02:25 71° E 18:06:51 10° NNE
Cosmos 2184 Rocket 4.0 17:56:22 10° S 18:02:31 79° E 18:08:44 10° N
SeaSat 1 3.1 17:58:35 10° NE 18:03:02 33° ESE 18:07:27 10° S
Okean 1-7 4.2 18:00:14 10° NNE 18:03:40 22° ENE 18:07:03 10° ESE
Cosmos 1707 Rocket 3.9 17:59:27 10° NNW 18:03:50 71° W 18:08:08 10° S
CZ-4 R/B 1.2 18:04:17 10° SSE 18:08:08 87° ENE 18:12:05 10° NNW
H-2A R/B 2.2 18:02:44 10° SSE 18:08:10 82° ENE 18:13:39 10° NNW
CZ-2C R/B 3.2 18:03:10 10° NNE 18:08:15 37° E 18:13:11 10° SSE
USA 305 4.2 18:06:49 10° WNW 18:10:41 32° N 18:14:33 10° NE
SAR-Lupe-4 3.9 18:07:25 10° NNE 18:10:51 42° E 18:14:16 10° S
IRS-1C Rocket 4.3 18:06:44 10° S 18:11:59 78° WSW 18:17:18 10° NNW
Gbstr 26 Del rocket 3.8 18:09:10 10° W 18:13:25 50° N 18:18:27 11° ENE
Cosmos 2237 4.4 18:08:46 10° S 18:14:14 48° ESE 18:19:45 10° NE
Meteor 1-20 Rocket 4.3 18:09:18 10° SSW 18:14:45 84° WNW 18:20:17 10° N
SL-4 R/B 2.6 18:12:47 10° WNW 18:16:08 36° N 18:18:38 15° ENE
USA 307 4.3 18:18:11 10° WNW 18:22:02 31° N 18:25:41 11° NE
ATLAS CENTAUR R/B 1.5 18:20:29 10° S 18:23:53 40° ESE 18:26:57 12° NE
FALCON 9 DEB 3.3 18:20:42 10° NW 18:24:05 55° NNE 18:26:13 20° E
USA 186 3.3 18:25:07 14° NE 18:25:07 14° NE 18:25:49 10° NNE
USA 306 4.3 18:21:40 10° WNW 18:25:28 30° N 18:28:56 12° NE
Cosmos 1354 Rocket 4.0 18:21:14 10° NNW 18:26:27 60° ENE 18:31:36 10° SE
Cosmos 44 Rocket 3.7 18:22:36 10° NW 18:27:50 72° WSW 18:32:59 10° SSE
Okean-O 2.9 18:23:33 10° S 18:27:59 73° WSW 18:32:26 10° NNW
ERS-2 2.0 18:24:30 10° NNE 18:28:10 76° ESE 18:31:49 10° S
CSL-04 Rocket 3.7 18:23:49 10° SSE 18:29:19 71° ENE 18:34:50 10° N
Cosmos 1844 Rocket 2.7 18:24:37 10° NNW 18:30:09 60° ENE 18:35:39 10° SE
Cosmos 2084 Rocket 3.5 18:25:55 10° NW 18:30:17 86° SW 18:34:47 10° SE
SAR-Lupe-1 3.9 18:26:43 10° NNE 18:30:19 77° ESE 18:33:55 10° S
CSL-04 Debris 4.1 18:25:15 10° SSE 18:30:41 78° ENE 18:36:10 10° NNW
USA 308 4.3 18:28:53 10° WNW 18:32:41 30° N 18:35:51 13° NE
Cosmos 1666 3.4 18:30:25 10° SSE 18:33:41 29° E 18:36:57 10° NNE
HJ-1C 3.5 18:32:37 10° S 18:35:56 76° W 18:39:15 10° NNW
Cosmos 1503 Rocket 3.9 18:31:28 10° NNW 18:36:42 82° ENE 18:41:52 10° SSE
Cosmos 2341 Rocket 4.1 18:31:30 10° SSE 18:37:35 53° E 18:43:40 10° NNE
Meteor 1-5 Rocket 4.3 18:32:48 10° SSE 18:37:55 48° E 18:43:12 10° NNE
PSLV R/B 4.3 18:35:11 10° N 18:39:16 66° WNW 18:43:17 10° SSW
Cosmos 1470 Rocket 3.7 18:37:10 10° SSW 18:41:38 80° W 18:46:06 10° N
Cosmos 1844 3.8 18:36:13 10° NNW 18:41:59 62° ENE 18:46:58 13° SE
Okean 3 4.4 18:38:41 10° NNE 18:42:18 26° ENE 18:42:56 25° E
CZ-4B R/B 4.2 18:40:52 10° NNW 18:43:07 19° WNW 18:45:22 10° WSW
Cosmos 2360 Rocket 2.1 18:38:39 10° SSW 18:44:15 70° ESE 18:49:55 10° NNE
Ariane Rocket 3.6 18:42:04 20° ESE 18:44:50 35° ENE 18:49:26 10° N
Cosmos 2278 Rocket 3.6 18:42:55 10° N 18:47:09 21° NE 18:48:36 19° ENE
Cosmos 1500 3.3 18:48:38 10° SSW 18:52:21 75° W 18:56:06 10° N
Meteor 2-4 Rocket 3.8 18:48:11 10° N 18:54:03 90° ENE 18:59:59 10° S
Cosmos 1703 Rocket 3.4 18:49:51 10° N 18:54:17 73° E 18:58:37 10° SSE
Cosmos 2333 Rocket 2.6 18:49:17 10° S 18:54:28 38° ESE 18:59:42 10° NE
Cosmos 2218 Rocket 4.2 18:50:06 10° SSE 18:56:11 49° E 19:02:18 10° NNE
SL-08 RB Rocket 3.9 18:52:05 10° S 18:56:34 72° WSW 19:01:09 10° NNW
Cosmos 1689 Rocket 3.8 18:53:58 10° N 18:56:38 34° WNW 18:59:16 10° SW
ERBS 4.5 18:57:52 10° WNW 19:00:28 21° NNW 19:02:19 14° NNE
Cosmos 1933 Rocket 3.8 18:58:13 10° SSW 19:02:33 72° W 19:06:57 10° N
Aureole 2 Rocket 4.1 19:02:57 10° NW 19:05:02 23° WSW 19:06:52 11° SSW
Resurs 01 Rocket 3.0 19:12:41 23° NE 19:12:41 23° NE 19:15:10 10° N
Cosmos 2242 Rocket 4.0 19:07:49 10° NNW 19:12:18 65° W 19:16:42 10° S
Cosmos 864 Rocket 4.4 19:06:56 10° S 19:12:56 59° E 19:19:02 10° NNE
Cosmos 2322 Rocket 3.3 19:09:06 10° SW 19:14:26 43° NW 19:19:48 10° NNE
Lacrosse 4 Rocket 2.7 19:12:10 10° S 19:14:29 27° SSE 19:14:29 27° SSE
Abrixas rocket 3.5 19:14:39 10° WNW 19:16:07 29° WNW 19:16:07 29° WNW
Cosmos 1959 Rocket 4.3 19:12:19 10° S 19:18:21 68° E 19:24:25 10° NNE
SME Rocket 4.1 19:10:20 10° NNE 19:18:31 67° E 19:23:47 10° S
Cosmos 192 4.2 19:16:48 10° S 19:21:39 68° ESE 19:26:33 10° NNE
SJ-6B 2.8 19:22:30 42° S 19:23:49 85° WSW 19:27:54 10° NNW
COSMOS 2428 2.8 19:19:03 10° S 19:24:27 48° ESE 19:24:51 47° E
ASTEX 1 3.2 19:22:45 10° N 19:27:39 73° E 19:30:11 28° S
GP-B 4.3 19:23:57 10° SSW 19:28:09 42° W 19:32:24 10° NNW
MOS 1 4.2 19:25:33 29° SSE 19:28:38 81° ENE 19:34:20 10° NNW
Meteor 1-23 Rocket 4.2 19:24:21 10° N 19:29:51 55° ENE 19:30:27 52° E
Cosmos 2219 Rocket 2.0 19:25:54 10° SSW 19:31:24 64° ESE 19:36:58 10° NNE
Meteor 1-11 Rocket 3.6 19:25:52 10° S 19:31:35 78° E 19:37:13 10° NNE
MetOp-A 4.5 19:27:31 10° S 19:32:49 64° WSW 19:38:09 10° NNW
Cosmos 1241 Rocket 4.5 19:27:40 10° NW 19:34:19 87° WSW 19:36:54 40° SSE
OBJECT-B 2.3 19:36:24 33° NNW 19:36:24 33° NNW 19:38:21 10° NNW
Resurs 1-3 3.7 19:38:47 66° NNE 19:38:47 66° NNE 19:42:41 10° N
SL-16 R/B 4.3 19:34:47 10° WSW 19:39:28 26° NW 19:44:11 10° N
SeaSat 1 3.7 19:35:58 10° NNE 19:40:35 41° NW 19:45:12 10° WSW
SJ 16-02 2.4 19:36:47 10° N 19:39:35 33° NNE 19:39:35 33° NNE
Okean 1-7 4.4 19:37:19 10° NNW 19:41:22 38° W 19:45:22 10° SSW
USA 234 3.1 19:39:54 30° NE 19:43:27 89° SE 19:50:01 10° SW
Cosmos 1066 Rocket 4.2 19:38:01 10° N 19:43:46 89° E 19:45:41 45° S
CZ-2C R/B 4.3 19:43:33 10° N 19:48:28 35° WNW 19:53:17 10° SW
Meteor 2-20 Rocket 4.5 19:43:23 10° N 19:49:08 57° ENE 19:49:08 57° ENE
IRS-1A Rocket 4.5 19:46:43 29° S 19:49:40 68° WSW 19:55:13 10° NNW
Cosmos 2322 3.8 19:45:44 10° SSW 19:51:27 74° WNW 19:57:12 10° NNE
USA 305 4.3 19:47:35 10° NW 19:50:56 32° N 19:50:56 32° N
BREEZE-M DEB (TANK) 2.9 19:48:39 10° WNW 19:51:09 62° NNW 19:51:09 62° NNW
SL-4 R/B 3.6 19:52:27 10° WNW 19:54:13 27° WNW 19:54:13 27° WNW
Gbstr 26 Del rocket 3.9 19:56:15 10° WNW 20:00:59 52° N 20:00:59 52° N
USA 307 4.5 19:58:56 10° NW 20:01:49 30° NNW 20:01:49 30° NNW
ATLAS CENTAUR R/B 3.3 19:59:57 10° W 20:02:53 23° NW 20:03:11 22° NNW
SPOT 3 Rocket 4.0 20:18:37 57° NW 20:18:37 57° NW 20:22:52 10° NNW
NOSS 3-3 (A) 4.4 20:10:34 10° NW 20:18:04 75° NE 20:18:42 71° E
NOSS 3-3 (C) 4.4 20:10:40 10° NW 20:18:09 75° NE 20:18:47 71° E
Ariane Rocket 4.4 20:22:15 28° SW 20:23:46 34° W 20:28:24 10° NNW
Cosmos 2360 Rocket 4.3 20:24:18 10° W 20:28:49 24° NW 20:33:21 10° N
Cosmos 2278 Rocket 2.8 20:26:15 10° NNW 20:30:28 51° NNW 20:30:28 51° NNW
Cosmos 2333 Rocket 3.4 20:33:25 10° WSW 20:38:43 39° NW 20:44:05 10° NNE
Resurs 01 Rocket 4.0 20:50:14 20° NW 20:50:14 20° NW 20:51:54 10° NNW
Cosmos 1943 Rocket 4.2 20:46:17 10° N 20:48:24 20° N 20:48:24 20° N
COSMOS 2428 4.5 21:03:53 10° WSW 21:14:01 10° NNE 21:14:02 10° NNE
Cosmos 2219 Rocket 4.1 21:11:15 10° WSW 21:15:49 25° NW 21:20:26 10° N
SJ 16-02 4.5 21:16:10 10° NW 21:16:35 12° WNW 21:16:35 12° WNW
USA 234 4.3 21:27:15 41° NW 21:27:15 41° NW 21:32:14 10° W
